This is the latest recevied weather packets stored in our database for station/object KI4HRG. If no packets are shown the sender has not sent any weather packets the latest 10 day(s).
| Time | Temp. | Humidity | Pressure | Rain* | Wind** | Luminosity | Snow |
|---|---|---|---|---|---|---|---|
| 1778025446 | 23.89° C | 63% | 1011.7 hPa | 0 mm | - | 15 W/m² | - |
| 1778025144 | 23.89° C | 63% | 1011.8 hPa | 0 mm | - | 24 W/m² | - |
| 1778024841 | 23.89° C | 63% | 1011.6 hPa | 0 mm | - | 23 W/m² | - |
| 1778024538 | 23.89° C | 62% | 1011.7 hPa | 0 mm | - | 27 W/m² | - |
| 1778024234 | 23.89° C | 63% | 1011.6 hPa | 0 mm | - | 27 W/m² | - |
| 1778023933 | 23.89° C | 63% | 1011.8 hPa | 0 mm | - | 37 W/m² | - |
| 1778023630 | 24.44° C | 63% | 1011.7 hPa | 0 mm | - | 40 W/m² | - |
| 1778023327 | 24.44° C | 63% | 1012 hPa | 0 mm | - | 36 W/m² | - |
| 1778023024 | 24.44° C | 63% | 1012.1 hPa | 0 mm | - | 33 W/m² | - |
| 1778022723 | 24.44° C | 62% | 1012 hPa | 0 mm | - | 50 W/m² | - |
| 1778022421 | 24.44° C | 61% | 1011.7 hPa | 0 mm | - | 66 W/m² | - |
| 1778022117 | 24.44° C | 62% | 1012 hPa | 0 mm | - | 55 W/m² | - |
| 1778021813 | 24.44° C | 62% | 1012.1 hPa | 0 mm | - | 54 W/m² | - |
| 1778021510 | 24.44° C | 62% | 1012 hPa | 0 mm | - | 55 W/m² | - |
| 1778021206 | 24.44° C | 62% | 1012.1 hPa | 0 mm | - | 56 W/m² | - |
| 1778020903 | 24.44° C | 62% | 1012.1 hPa | 0 mm | - | 53 W/m² | - |
| 1778020596 | 24.44° C | 62% | 1012.2 hPa | 0 mm | - | 65 W/m² | - |
| 1778020291 | 25° C | 60% | 1012.2 hPa | 0 mm | - | 68 W/m² | - |
| 1778019987 | 25° C | 60% | 1012.3 hPa | 0 mm | - | 67 W/m² | - |
| 1778019684 | 25° C | 60% | 1012.2 hPa | 0 mm | - | 64 W/m² | - |
| 1778019381 | 25° C | 60% | 1012 hPa | 0 mm | - | 86 W/m² | - |
| 1778019077 | 25° C | 60% | 1012.1 hPa | 0 mm | - | 115 W/m² | - |
| 1778018775 | 25° C | 59% | 1012 hPa | 0 mm | - | 144 W/m² | - |
| 1778018472 | 25° C | 60% | 1012 hPa | 0 mm | - | 159 W/m² | - |
| 1778018170 | 24.44° C | 60% | 1012.1 hPa | 0 mm | - | 108 W/m² | - |
* Rain latest hour (hover to see other rain measurements)
** Current wind speed in m/s (hover to see current wind gust speed)